Location: Cazavet
(43.0017°N, 1.0431°E)
Time: 08:18:07
(UTC+00:00)

Cosmos 1805 Rocket - Pass Details

Date: 18 January 2026
Orbit: 599 x 623 km, 82.5° (Epoch: 9 February)

Event Time Altitude Azimuth Distance (km) Brightness Sun altitude
Rises 05:08:16 0° 188° (S) 2,889 7.0 -24.2°
Reaches altitude 10° 05:10:29 10° 189° (S) 1,986 6.1 -23.8°
Maximum altitude 05:14:54 84° 278° (W) 630 3.4 -23.0°
Drops below altitude 10° 05:19:20 10° 7° (N) 1,994 6.1 -22.2°
Sets 05:21:34 0° 8° (N) 2,901 7.0 -21.8°
